Mandan, ND

10:52 AM CST on February 24, 2018 (GMT -0600)
Mandan

Weather History for KY19 - May, 2013

Change the Weather History Date:

Wednesday, May 15, 2013

  Actual Average (KBIS) Record (KBIS)
Temperature  
Mean Temperature 63 °F -  
Max Temperature 78 °F 69 °F 92 °F (1987)
Min Temperature 48 °F 43 °F 24 °F (2014)
Degree Days  
Heating Degree Days 2    
Growing Degree Days 13 (Base 50)    
Moisture  
Dew Point 34 °F    
Average Humidity 37    
Maximum Humidity 71    
Minimum Humidity 16    
Precipitation  
Precipitation 0.00 in - - ()
Sea Level Pressure  
Sea Level Pressure 29.90 in    
Wind  
Wind Speed 10 mph (WNW)    
Max Wind Speed 24 mph    
Max Gust Speed 33 mph    
Visibility 10 miles    
Events      
Averages and records for this station are not official NWS values.
T = Trace of Precipitation, MM = Missing Value Source: NWS Daily Summary

Daily Weather History Graph

Daily Weather History Graph

Search for Another Location

Airport or City:

Trip Planner

Search our weather history database for the weather conditions in past years. The results will help you decide how hot, cold, wet, or windy it might be!

Date:

Astronomy

May. 15, 2013 Rise Set
Actual Time 6:08 AM CDT 9:11 PM CDT
Civil Twilight 5:32 AM CDT 9:47 PM CDT
Nautical Twilight 4:46 AM CDT 10:34 PM CDT
Astronomical Twilight 3:50 AM CDT 11:31 PM CDT
Moon 10:49 AM CDT (5/15) 12:56 AM CDT (5/15)
Length of Visible Light 16h 15m
Length of Day
15h 03m
Waxing Crescent, 27% of the Moon is Illuminated
May 15
Waxing Crescent
May 17
First Quarter
May 24
Full
May 31
Last Quarter
Jun 8
New

Hourly Weather History & Observations

Time (CDT) Temp. Dew Point Humidity Pressure Visibility Wind Dir Wind Speed Gust Speed Precip Events Conditions
12:15 AM 53.6 °F 37.4 °F 54% 29.87 in 10.0 mi WSW 6.9 mph - N/A   Clear
12:35 AM 48.2 °F 37.4 °F 66% 29.88 in 10.0 mi West 6.9 mph - N/A   Clear
12:55 AM 50.0 °F 37.4 °F 62% 29.88 in 10.0 mi West 8.1 mph - N/A   Clear
1:15 AM 50.0 °F 39.2 °F 66% 29.88 in 10.0 mi WSW 8.1 mph - N/A   Clear
1:35 AM 50.0 °F 37.4 °F 62% 29.88 in 10.0 mi SW 11.5 mph - N/A   Clear
1:55 AM 51.8 °F 39.2 °F 62% 29.88 in 10.0 mi WSW 9.2 mph - N/A   Clear
2:15 AM 51.8 °F 39.2 °F 62% 29.89 in 10.0 mi SW 9.2 mph - N/A   Clear
2:35 AM 50.0 °F 39.2 °F 66% 29.87 in 10.0 mi SW 9.2 mph - N/A   Clear
2:55 AM 50.0 °F 39.2 °F 66% 29.87 in 10.0 mi WSW 8.1 mph - N/A   Clear
3:15 AM 48.2 °F 39.2 °F 71% 29.89 in 10.0 mi West 9.2 mph - N/A   Clear
3:35 AM 53.6 °F 39.2 °F 58% 29.89 in 10.0 mi WSW 11.5 mph - N/A   Clear
3:55 AM 53.6 °F 39.2 °F 58% 29.91 in 10.0 mi WSW 10.4 mph - N/A   Clear
4:15 AM 53.6 °F 39.2 °F 58% 29.90 in 10.0 mi WSW 10.4 mph - N/A   Partly Cloudy
4:35 AM 53.6 °F 39.2 °F 58% 29.90 in 10.0 mi WSW 10.4 mph - N/A   Partly Cloudy
4:55 AM 53.6 °F 39.2 °F 58% 29.90 in 10.0 mi WSW 10.4 mph - N/A   Partly Cloudy
5:15 AM 53.6 °F 39.2 °F 58% 29.90 in 10.0 mi WSW 8.1 mph - N/A   Mostly Cloudy
5:35 AM 53.6 °F 39.2 °F 58% 29.90 in 10.0 mi WSW 9.2 mph - N/A   Scattered Clouds
5:55 AM 51.8 °F 39.2 °F 62% 29.91 in 10.0 mi WSW 9.2 mph - N/A   Clear
6:15 AM 50.0 °F 39.2 °F 66% 29.91 in 10.0 mi West 9.2 mph - N/A   Clear
6:35 AM 51.8 °F 39.2 °F 62% 29.91 in 10.0 mi WSW 8.1 mph - N/A   Clear
6:55 AM 51.8 °F 39.2 °F 62% 29.91 in 10.0 mi West 8.1 mph - N/A   Clear
7:15 AM 55.4 °F 39.2 °F 54% 29.91 in 10.0 mi WSW 8.1 mph - N/A   Clear
7:35 AM 57.2 °F 41.0 °F 55% 29.92 in 10.0 mi West 8.1 mph - N/A   Clear
7:55 AM 57.2 °F 39.2 °F 51% 29.92 in 10.0 mi WSW 10.4 mph - N/A   Clear
8:15 AM 59.0 °F 39.2 °F 48% 29.91 in 10.0 mi West 10.4 mph - N/A   Clear
8:35 AM 62.6 °F 39.2 °F 42% 29.92 in 10.0 mi West 11.5 mph - N/A   Clear
8:55 AM 64.4 °F 39.2 °F 40% 29.92 in 10.0 mi West 11.5 mph - N/A   Partly Cloudy
9:15 AM 66.2 °F 37.4 °F 35% 29.92 in 10.0 mi West 15.0 mph - N/A   Clear
9:35 AM 68.0 °F 37.4 °F 33% 29.93 in 10.0 mi West 13.8 mph - N/A   Clear
9:55 AM 69.8 °F 35.6 °F 28% 29.93 in 10.0 mi West 16.1 mph - N/A   Clear
10:15 AM 68.0 °F 35.6 °F 30% 29.93 in 6.0 mi WNW 12.7 mph 19.6 mph N/A   Haze
10:35 AM 68.0 °F 37.4 °F 33% 29.93 in 10.0 mi West 10.4 mph - N/A   Clear
10:55 AM 69.8 °F 37.4 °F 31% 29.93 in 10.0 mi West 11.5 mph - N/A   Clear
11:15 AM 71.6 °F 32.0 °F 23% 29.93 in 10.0 mi WNW 13.8 mph 18.4 mph N/A   Clear
11:35 AM 71.6 °F 28.4 °F 20% 29.93 in 10.0 mi West 13.8 mph - N/A   Clear
11:55 AM 73.4 °F 28.4 °F 19% 29.93 in 10.0 mi West 16.1 mph 23.0 mph N/A   Clear
12:15 PM 73.4 °F 28.4 °F 19% 29.93 in 10.0 mi West 17.3 mph 23.0 mph N/A   Clear
12:55 PM 77.0 °F 28.4 °F 17% 29.92 in 10.0 mi West 20.7 mph 26.5 mph N/A   Clear
1:15 PM 77.0 °F 28.4 °F 17% 29.91 in 10.0 mi NW 12.7 mph 18.4 mph N/A   Clear
1:35 PM 77.0 °F 26.6 °F 16% 29.91 in 10.0 mi WNW 16.1 mph 25.3 mph N/A   Partly Cloudy
1:55 PM 77.0 °F 26.6 °F 16% 29.91 in 10.0 mi West 16.1 mph 29.9 mph N/A   Clear
2:15 PM 77.0 °F 26.6 °F 16% 29.90 in 10.0 mi WNW 21.9 mph 32.2 mph N/A   Clear
2:35 PM 77.0 °F 26.6 °F 16% 29.90 in 10.0 mi West 24.2 mph 33.4 mph N/A   Clear
2:55 PM 77.0 °F 28.4 °F 17% 29.90 in 10.0 mi West 13.8 mph 29.9 mph N/A   Clear
3:15 PM 77.0 °F 30.2 °F 18% 29.89 in 10.0 mi NW 19.6 mph 25.3 mph N/A   Clear
3:35 PM 77.0 °F 30.2 °F 18% 29.90 in 10.0 mi WNW 15.0 mph 24.2 mph N/A   Partly Cloudy
3:55 PM 77.0 °F 28.4 °F 17% 29.89 in 10.0 mi NNW 15.0 mph 21.9 mph N/A   Mostly Cloudy
4:15 PM 77.0 °F 28.4 °F 17% 29.89 in 10.0 mi NW 13.8 mph - N/A   Scattered Clouds
4:35 PM 78.8 °F 30.2 °F 17% 29.89 in 10.0 mi NW 10.4 mph 26.5 mph N/A   Scattered Clouds
4:55 PM 77.0 °F 32.0 °F 19% 29.88 in 10.0 mi North 12.7 mph 17.3 mph N/A   Scattered Clouds
5:15 PM 77.0 °F 28.4 °F 17% 29.88 in 10.0 mi WNW 16.1 mph 25.3 mph N/A   Partly Cloudy
5:35 PM 77.0 °F 32.0 °F 19% 29.88 in 10.0 mi NNW 9.2 mph 20.7 mph N/A   Clear
5:55 PM 75.2 °F 32.0 °F 21% 29.88 in 10.0 mi North 9.2 mph - N/A   Clear
6:15 PM 77.0 °F 32.0 °F 19% 29.88 in 10.0 mi NW 10.4 mph 16.1 mph N/A   Clear
6:35 PM 75.2 °F 32.0 °F 21% 29.88 in 10.0 mi NNW 9.2 mph - N/A   Clear
6:55 PM 75.2 °F 33.8 °F 22% 29.88 in 10.0 mi NNW 12.7 mph - N/A   Clear
7:15 PM 75.2 °F 33.8 °F 22% 29.88 in 10.0 mi North 10.4 mph - N/A   Clear
7:35 PM 73.4 °F 32.0 °F 22% 29.88 in 10.0 mi NNW 11.5 mph - N/A   Clear
7:55 PM 73.4 °F 33.8 °F 23% 29.89 in 10.0 mi North 9.2 mph - N/A   Clear
8:15 PM 71.6 °F 33.8 °F 25% 29.89 in 10.0 mi North 11.5 mph - N/A   Clear
8:35 PM 68.0 °F 35.6 °F 30% 29.89 in 10.0 mi North 8.1 mph - N/A   Clear
8:55 PM 66.2 °F 33.8 °F 30% 29.89 in 10.0 mi North 6.9 mph - N/A   Clear
9:15 PM 64.4 °F 33.8 °F 32% 29.89 in 10.0 mi North 6.9 mph - N/A   Clear
9:35 PM 64.4 °F 33.8 °F 32% 29.90 in 10.0 mi North 8.1 mph - N/A   Clear
9:55 PM 64.4 °F 32.0 °F 30% 29.90 in 10.0 mi North 4.6 mph - N/A   Clear
10:15 PM 66.2 °F 32.0 °F 28% 29.90 in 10.0 mi North 4.6 mph - N/A   Clear
10:35 PM 66.2 °F 32.0 °F 28% 29.90 in 10.0 mi NNE 5.8 mph - N/A   Partly Cloudy
10:55 PM 66.2 °F 32.0 °F 28% 29.90 in 10.0 mi NE 3.5 mph - N/A   Mostly Cloudy
11:15 PM 66.2 °F 32.0 °F 28% 29.90 in 10.0 mi NNE 4.6 mph - N/A   Mostly Cloudy
11:35 PM 64.4 °F 32.0 °F 30% 29.90 in 10.0 mi NNE 5.8 mph - N/A   Mostly Cloudy
11:55 PM 64.4 °F 32.0 °F 30% 29.90 in 10.0 mi NE 3.5 mph - N/A   Mostly Cloudy